RYS5069 EPKT-LEPA

Flight info

Callsign RYS5069
Flight time N/A
Altitude 36000
Route OMFOL T738 DINOV DCT LASIS DCT BOLBO L986 MAG Z115 ORTAG DCT BAMKI DCT IBAGA DCT DKB DCT TEDGO N869 NATOR DCT LUTIX DCT BENOT DCT NEMOS DCT GEVEA DCT INCUS DCT BALSI DCT RETNO DCT TUPOX DCT MTG DCT DIVKO DCT VATIR DCT PIVUS DCT BODEQ DCT VERSO L129 LUNIK
Aircraft B738/M-SDE2E3FGHIRWXY/LB1

Departure

Time 2026-05-04 14:44
Airport Katowice Wojciech Korfanty International Airport (EPKT)

Arrival

Time N/A
Airport Palma de Mallorca Airport (LEPA)
Time Latitude Longitude Altitude Speed Heading
2026-05-04 14:23 50.47144 19.07966 997 ft 0 kts 180°
2026-05-04 14:36 50.47157 19.07966 997 ft 3 kts 180°
2026-05-04 14:36 50.47178 19.07966 1001 ft 3 kts 180°
2026-05-04 14:36 50.47195 19.07967 997 ft 3 kts 179°
2026-05-04 14:36 50.47215 19.07964 997 ft 3 kts 160°
2026-05-04 14:37 50.47230 19.07950 998 ft 3 kts 118°
2026-05-04 14:37 50.47233 19.07924 997 ft 3 kts 90°
2026-05-04 14:37 50.47233 19.07893 997 ft 1 kts 90°
2026-05-04 14:37 50.47233 19.07892 997 ft 1 kts 90°
2026-05-04 14:39 50.47233 19.07915 1002 ft 5 kts 90°
2026-05-04 14:40 50.47233 19.08163 1000 ft 15 kts 90°
2026-05-04 14:40 50.47232 19.08318 997 ft 14 kts 90°
2026-05-04 14:40 50.47232 19.08467 999 ft 13 kts 90°
2026-05-04 14:40 50.47263 19.08584 999 ft 13 kts 17°
2026-05-04 14:41 50.47352 19.08585 1000 ft 13 kts 359°
2026-05-04 14:41 50.47420 19.08638 999 ft 12 kts 79°
2026-05-04 14:41 50.47423 19.08901 1002 ft 12 kts 89°
2026-05-04 14:42 50.47422 19.09151 999 ft 11 kts 90°
2026-05-04 14:42 50.47421 19.09270 999 ft 11 kts 90°
2026-05-04 14:42 50.47439 19.09377 1000 ft 10 kts 35°
2026-05-04 14:43 50.47509 19.09394 998 ft 10 kts
2026-05-04 14:43 50.47575 19.09372 999 ft 10 kts 318°
2026-05-04 14:43 50.47597 19.09273 1000 ft 10 kts 272°
2026-05-04 14:43 50.47598 19.09077 1001 ft 43 kts 270°
2026-05-04 14:44 50.47599 19.08197 997 ft 115 kts 270°
2026-05-04 14:44 50.47601 19.06620 1034 ft 169 kts 266°
2026-05-04 14:44 50.47599 19.04763 1891 ft 170 kts 266°
2026-05-04 14:44 50.47594 19.02950 2885 ft 165 kts 265°
2026-05-04 14:45 50.47587 19.01051 3573 ft 184 kts 266°
2026-05-04 14:45 50.47588 18.98942 4152 ft 204 kts 267°
2026-05-04 14:45 50.47540 18.96650 4767 ft 217 kts 266°
2026-05-04 14:45 50.47553 18.94204 5330 ft 235 kts 268°
2026-05-04 14:46 50.47564 18.91493 5780 ft 256 kts 267°
2026-05-04 14:46 50.47543 18.88669 6634 ft 261 kts 266°
2026-05-04 14:46 50.47514 18.85820 7559 ft 262 kts 266°
2026-05-04 14:46 50.47480 18.82939 8398 ft 266 kts 266°
2026-05-04 14:47 50.47444 18.80011 9254 ft 270 kts 266°
2026-05-04 14:47 50.47406 18.77042 10092 ft 274 kts 266°
2026-05-04 14:47 50.47363 18.73971 10550 ft 294 kts 266°
2026-05-04 14:47 50.47315 18.70622 10769 ft 318 kts 266°
2026-05-04 14:48 50.47266 18.67127 11316 ft 329 kts 266°
2026-05-04 14:48 50.47217 18.63530 12131 ft 331 kts 266°
2026-05-04 14:48 50.47166 18.59903 12958 ft 334 kts 266°
2026-05-04 14:48 50.47110 18.56232 13775 ft 338 kts 265°
2026-05-04 14:49 50.47030 18.52531 14508 ft 341 kts 265°
2026-05-04 14:49 50.46935 18.48795 15214 ft 344 kts 265°
2026-05-04 14:49 50.46837 18.45024 15934 ft 347 kts 265°
2026-05-04 14:49 50.46739 18.41217 16644 ft 351 kts 265°
2026-05-04 14:50 50.46641 18.37395 17367 ft 354 kts 265°
2026-05-04 14:50 50.46540 18.33498 18049 ft 357 kts 265°
2026-05-04 14:50 50.46437 18.29579 18659 ft 361 kts 265°
2026-05-04 14:50 50.46334 18.25633 19212 ft 365 kts 265°
2026-05-04 14:51 50.46226 18.21607 19754 ft 370 kts 266°
2026-05-04 14:51 50.46118 18.17556 20316 ft 374 kts 266°
2026-05-04 14:51 50.46006 18.13445 20876 ft 378 kts 266°
2026-05-04 14:51 50.45891 18.09303 21401 ft 383 kts 266°
2026-05-04 14:52 50.45774 18.05100 21939 ft 387 kts 266°
2026-05-04 14:52 50.45654 18.00865 22473 ft 391 kts 266°
2026-05-04 14:52 50.45532 17.96589 23004 ft 395 kts 267°
2026-05-04 14:52 50.45407 17.92257 23492 ft 399 kts 267°
2026-05-04 14:53 50.45279 17.87892 23933 ft 402 kts 267°
2026-05-04 14:53 50.45208 17.83496 24381 ft 405 kts 274°
2026-05-04 14:53 50.45788 17.79187 24818 ft 408 kts 290°
2026-05-04 14:53 50.46911 17.75084 25332 ft 409 kts 293°
2026-05-04 14:54 50.48077 17.71124 25739 ft 412 kts 294°
2026-05-04 14:54 50.49299 17.67034 26123 ft 415 kts 294°
2026-05-04 14:54 50.50520 17.62919 26550 ft 417 kts 294°
2026-05-04 14:54 50.51736 17.58771 26973 ft 419 kts 293°
2026-05-04 14:55 50.52940 17.54614 27380 ft 421 kts 293°
2026-05-04 14:55 50.54147 17.50412 27775 ft 423 kts 293°
2026-05-04 14:55 50.55354 17.46185 28145 ft 425 kts 293°
2026-05-04 14:55 50.56569 17.41915 28524 ft 427 kts 293°
2026-05-04 14:56 50.57783 17.37642 28897 ft 429 kts 293°
2026-05-04 14:56 50.59002 17.33341 29255 ft 431 kts 293°
2026-05-04 14:56 50.60225 17.29017 29688 ft 431 kts 293°
2026-05-04 14:56 50.61438 17.24724 30219 ft 428 kts 293°
2026-05-04 14:57 50.62642 17.20459 30712 ft 425 kts 293°
2026-05-04 14:57 50.63840 17.16206 31131 ft 424 kts 292°
2026-05-04 14:57 50.65016 17.12019 31491 ft 423 kts 292°
2026-05-04 14:57 50.66216 17.07742 31907 ft 422 kts 292°
2026-05-04 14:58 50.67402 17.03507 32363 ft 419 kts 292°
2026-05-04 14:58 50.68573 16.99322 32794 ft 417 kts 292°
2026-05-04 14:58 50.69347 16.96551 33059 ft 416 kts 292°
2026-05-04 14:58 50.70505 16.92383 33452 ft 415 kts 292°
2026-05-04 14:59 50.71989 16.86950 33985 ft 412 kts 292°
2026-05-04 14:59 50.72747 16.84149 34216 ft 411 kts 291°
2026-05-04 14:59 50.75345 16.74523 34860 ft 410 kts 291°
2026-05-04 15:00 50.76098 16.71730 35035 ft 410 kts 291°
2026-05-04 15:00 50.77215 16.67580 35328 ft 409 kts 291°
2026-05-04 15:00 50.78325 16.63453 35638 ft 408 kts 291°
2026-05-04 15:01 50.80539 16.55203 35944 ft 412 kts 291°
2026-05-04 15:01 50.81659 16.51018 35969 ft 414 kts 291°
2026-05-04 15:01 50.83893 16.42652 35953 ft 410 kts 291°
2026-05-04 15:02 50.86090 16.34398 35959 ft 405 kts 291°
2026-05-04 15:02 50.88268 16.26179 35959 ft 405 kts 291°
2026-05-04 15:03 50.90442 16.17949 35964 ft 405 kts 291°
2026-05-04 15:03 50.92629 16.09720 35958 ft 406 kts 293°
2026-05-04 15:04 50.95612 16.02104 35964 ft 409 kts 302°
2026-05-04 15:04 50.98883 15.94679 35963 ft 410 kts 302°
2026-05-04 15:05 51.02130 15.87247 35959 ft 410 kts 302°
2026-05-04 15:05 51.05366 15.79757 35958 ft 411 kts 301°
2026-05-04 15:06 51.08587 15.72254 35956 ft 411 kts 301°
2026-05-04 15:07 51.13416 15.60957 35951 ft 411 kts 301°
2026-05-04 15:07 51.16605 15.53473 35954 ft 411 kts 301°
2026-05-04 15:08 51.19804 15.45941 35950 ft 411 kts 301°
2026-05-04 15:08 51.23006 15.38383 35952 ft 410 kts 301°
2026-05-04 15:09 51.26189 15.30846 35950 ft 409 kts 301°
2026-05-04 15:09 51.29363 15.23308 35950 ft 409 kts 301°
2026-05-04 15:10 51.34110 15.11993 35948 ft 408 kts 300°
2026-05-04 15:11 51.38832 15.00693 35952 ft 407 kts 300°
2026-05-04 15:11 51.41538 14.92827 35946 ft 402 kts 287°
2026-05-04 15:12 51.43403 14.84393 35951 ft 402 kts 287°
2026-05-04 15:12 51.45240 14.75925 35944 ft 402 kts 287°
2026-05-04 15:13 51.47091 14.67468 35951 ft 402 kts 287°
2026-05-04 15:13 51.48951 14.59004 35955 ft 402 kts 287°
2026-05-04 15:14 51.50811 14.50526 35946 ft 402 kts 287°
2026-05-04 15:14 51.52662 14.42055 35948 ft 402 kts 287°
2026-05-04 15:15 51.54502 14.33601 35944 ft 402 kts 286°
2026-05-04 15:15 51.56345 14.25100 35947 ft 402 kts 286°
2026-05-04 15:16 51.59090 14.12368 35950 ft 401 kts 286°
2026-05-04 15:17 51.61812 13.99665 35950 ft 401 kts 286°
2026-05-04 15:17 51.64523 13.86934 35950 ft 400 kts 286°
2026-05-04 15:18 51.66318 13.78460 35949 ft 400 kts 285°
2026-05-04 15:19 51.68986 13.65796 35955 ft 399 kts 285°
2026-05-04 15:19 51.71648 13.53084 35958 ft 399 kts 285°
2026-05-04 15:20 51.73417 13.44588 35964 ft 399 kts 285°
2026-05-04 15:20 51.75178 13.36096 35966 ft 399 kts 285°
2026-05-04 15:21 51.76932 13.27605 35957 ft 399 kts 285°
2026-05-04 15:22 51.79543 13.14847 35962 ft 399 kts 283°
2026-05-04 15:22 51.81575 13.01861 35960 ft 398 kts 280°
2026-05-04 15:23 51.82848 12.93155 35962 ft 398 kts 281°
2026-05-04 15:23 51.84145 12.84439 35966 ft 398 kts 281°
2026-05-04 15:24 51.86741 12.67033 35959 ft 398 kts 281°
2026-05-04 15:25 51.88034 12.58298 35960 ft 398 kts 281°
2026-05-04 15:26 51.89956 12.45225 35959 ft 398 kts 280°
2026-05-04 15:26 51.91869 12.32186 35965 ft 398 kts 280°
2026-05-04 15:27 51.93779 12.19077 35969 ft 397 kts 280°
2026-05-04 15:28 51.95682 12.05985 35966 ft 397 kts 280°
2026-05-04 15:29 51.97558 11.92991 35963 ft 396 kts 280°
2026-05-04 15:30 51.97317 11.75771 35965 ft 388 kts 242°
2026-05-04 15:30 51.92241 11.65586 35969 ft 391 kts 230°
2026-05-04 15:31 51.86838 11.55704 35967 ft 392 kts 231°
2026-05-04 15:32 51.77872 11.39055 35961 ft 394 kts 229°
2026-05-04 15:33 51.73641 11.33416 35973 ft 398 kts 216°
2026-05-04 15:34 51.66585 11.26274 35968 ft 399 kts 215°
2026-05-04 15:34 51.59545 11.19077 35966 ft 399 kts 215°
2026-05-04 15:35 51.52513 11.11889 35964 ft 399 kts 214°
2026-05-04 15:36 51.44566 11.07586 35964 ft 411 kts 189°
2026-05-04 15:36 51.38843 11.07094 35971 ft 413 kts 187°
2026-05-04 15:37 51.33104 11.06725 35966 ft 412 kts 187°
2026-05-04 15:37 51.27378 11.06316 35964 ft 412 kts 187°
2026-05-04 15:38 51.21653 11.05876 35973 ft 411 kts 187°
2026-05-04 15:38 51.15956 11.05429 35970 ft 411 kts 187°
2026-05-04 15:39 51.10221 11.04979 35968 ft 411 kts 187°
2026-05-04 15:40 51.01665 11.04311 35965 ft 411 kts 187°
2026-05-04 15:40 50.95945 11.03866 35967 ft 411 kts 187°
2026-05-04 15:41 50.90231 11.03422 35970 ft 412 kts 187°
2026-05-04 15:41 50.84500 11.02979 35964 ft 412 kts 187°
2026-05-04 15:42 50.78776 11.02537 35973 ft 413 kts 187°
2026-05-04 15:42 50.73038 11.02071 35969 ft 412 kts 189°
2026-05-04 15:43 50.67505 11.00084 35988 ft 406 kts 200°
2026-05-04 15:43 50.62118 10.97422 35980 ft 406 kts 201°
2026-05-04 15:44 50.57629 10.95218 35981 ft 407 kts 200°
2026-05-04 15:44 50.52217 10.92602 35987 ft 407 kts 200°
2026-05-04 15:45 50.46797 10.90007 35980 ft 408 kts 200°
2026-05-04 15:45 50.41363 10.87418 35975 ft 409 kts 200°
2026-05-04 15:46 50.35915 10.84828 35983 ft 409 kts 200°
2026-05-04 15:46 50.30469 10.82246 35982 ft 409 kts 200°
2026-05-04 15:47 50.25075 10.79694 35980 ft 409 kts 200°
2026-05-04 15:47 50.19649 10.77132 35976 ft 408 kts 200°
2026-05-04 15:48 50.14160 10.74547 35983 ft 408 kts 200°
2026-05-04 15:48 50.06005 10.70717 35975 ft 407 kts 200°
2026-05-04 15:49 50.00617 10.68195 35980 ft 407 kts 200°
2026-05-04 15:49 49.95188 10.65659 35976 ft 407 kts 200°
2026-05-04 15:50 49.89785 10.63141 35982 ft 407 kts 200°
2026-05-04 15:50 49.84379 10.60627 35980 ft 406 kts 200°
2026-05-04 15:51 49.78965 10.58115 35980 ft 406 kts 199°
2026-05-04 15:51 49.73489 10.55569 35976 ft 406 kts 200°
2026-05-04 15:52 49.68192 10.52756 35976 ft 405 kts 202°
2026-05-04 15:52 49.62911 10.49830 35970 ft 405 kts 202°
2026-05-04 15:53 49.57577 10.46915 35964 ft 405 kts 202°
2026-05-04 15:53 49.52261 10.44045 35962 ft 405 kts 201°
2026-05-04 15:54 49.46969 10.41204 35962 ft 405 kts 201°
2026-05-04 15:54 49.41643 10.38351 35963 ft 405 kts 201°
2026-05-04 15:55 49.36317 10.35504 35963 ft 406 kts 201°
2026-05-04 15:55 49.30989 10.32662 35973 ft 406 kts 201°
2026-05-04 15:56 49.25654 10.29822 35978 ft 406 kts 201°
2026-05-04 15:56 49.20321 10.26990 35998 ft 406 kts 201°
2026-05-04 15:57 49.15184 10.23461 35996 ft 404 kts 215°
2026-05-04 15:57 49.11018 10.17793 35985 ft 402 kts 231°
2026-05-04 15:58 49.07519 10.11138 35981 ft 403 kts 231°
2026-05-04 15:58 49.04033 10.04447 35972 ft 403 kts 231°
2026-05-04 15:59 49.00506 9.97756 35985 ft 404 kts 231°
2026-05-04 15:59 48.96967 9.91097 35967 ft 405 kts 231°
2026-05-04 16:00 48.93446 9.84497 35988 ft 405 kts 231°
2026-05-04 16:00 48.89876 9.77825 35991 ft 405 kts 231°
2026-05-04 16:01 48.86312 9.71179 35973 ft 405 kts 231°
2026-05-04 16:01 48.82748 9.64549 35973 ft 405 kts 231°
2026-05-04 16:02 48.79181 9.57930 35970 ft 405 kts 230°
2026-05-04 16:03 48.73836 9.48042 35968 ft 404 kts 230°
2026-05-04 16:03 48.70276 9.41475 35970 ft 403 kts 230°
2026-05-04 16:04 48.66717 9.34924 35967 ft 403 kts 230°
2026-05-04 16:04 48.61394 9.25101 35965 ft 402 kts 232°
2026-05-04 16:05 48.58147 9.18315 35967 ft 401 kts 234°
2026-05-04 16:06 48.53348 9.08008 35967 ft 400 kts 234°
2026-05-04 16:07 48.46887 8.94329 35963 ft 398 kts 233°
2026-05-04 16:08 48.40459 8.80828 35965 ft 398 kts 233°
2026-05-04 16:09 48.32364 8.63918 35969 ft 399 kts 233°
2026-05-04 16:10 48.25858 8.50402 35971 ft 400 kts 233°
2026-05-04 16:11 48.19317 8.36876 35985 ft 400 kts 233°
2026-05-04 16:12 48.13289 8.28373 35992 ft 400 kts 213°
2026-05-04 16:12 48.06258 8.21690 35991 ft 401 kts 213°
2026-05-04 16:13 47.96864 8.12726 35989 ft 401 kts 213°
2026-05-04 16:14 47.87486 8.03757 35987 ft 401 kts 213°
2026-05-04 16:16 47.75749 7.92587 35997 ft 400 kts 213°
2026-05-04 16:17 47.64028 7.81492 36011 ft 399 kts 213°
2026-05-04 16:18 47.54696 7.72701 36015 ft 399 kts 213°
2026-05-04 16:19 47.45641 7.64206 36033 ft 398 kts 213°
2026-05-04 16:20 47.33943 7.53283 36040 ft 397 kts 213°
2026-05-04 16:22 47.22239 7.42411 36052 ft 398 kts 213°
2026-05-04 16:22 47.15549 7.35308 36056 ft 397 kts 226°
2026-05-04 16:23 47.10376 7.25788 36043 ft 397 kts 232°
2026-05-04 16:25 47.00047 7.06793 36048 ft 397 kts 231°
2026-05-04 16:26 46.87211 6.85812 36044 ft 396 kts 220°
2026-05-04 16:28 46.76507 6.73187 36054 ft 395 kts 220°
2026-05-04 16:29 46.61628 6.55573 36049 ft 394 kts 220°
2026-05-04 16:31 46.51689 6.43875 36053 ft 394 kts 220°
2026-05-04 16:32 46.38900 6.28906 36050 ft 392 kts 220°
2026-05-04 16:33 46.30447 6.19060 36043 ft 391 kts 220°
2026-05-04 16:34 46.25931 6.14607 36047 ft 394 kts 208°
2026-05-04 16:34 46.23390 6.13080 36043 ft 396 kts 202°
2026-05-04 16:35 46.06930 6.09108 36042 ft 401 kts 193°
2026-05-04 16:36 45.98668 6.07296 36040 ft 402 kts 193°
2026-05-04 16:37 45.90368 6.05468 36044 ft 402 kts 193°
2026-05-04 16:38 45.79289 6.03033 36046 ft 403 kts 193°
2026-05-04 16:39 45.65396 5.99974 36050 ft 402 kts 193°
2026-05-04 16:40 45.54335 5.97550 36044 ft 402 kts 193°
2026-05-04 16:41 45.40709 5.94022 36038 ft 396 kts 197°
2026-05-04 16:43 45.27251 5.89725 36006 ft 397 kts 197°
2026-05-04 16:43 45.19137 5.87200 36003 ft 399 kts 197°
2026-05-04 16:45 45.02797 5.82149 36000 ft 400 kts 197°
2026-05-04 16:46 44.89270 5.77991 35991 ft 398 kts 197°
2026-05-04 16:47 44.78501 5.74695 35993 ft 394 kts 197°
2026-05-04 16:48 44.67852 5.71448 36020 ft 390 kts 197°
2026-05-04 16:49 44.57239 5.68219 36007 ft 390 kts 197°
2026-05-04 16:50 44.46651 5.65012 36004 ft 389 kts 197°
2026-05-04 16:51 44.38736 5.62614 36025 ft 387 kts 199°
2026-05-04 16:52 44.28720 5.57331 36024 ft 385 kts 206°
2026-05-04 16:53 44.21225 5.53190 36015 ft 387 kts 206°
2026-05-04 16:54 44.11188 5.47701 36004 ft 388 kts 206°
2026-05-04 16:55 43.96159 5.39521 36014 ft 385 kts 205°
2026-05-04 16:56 43.83793 5.32852 35996 ft 381 kts 205°
2026-05-04 16:57 43.76382 5.28865 35992 ft 380 kts 205°
2026-05-04 16:58 43.66519 5.23575 35995 ft 380 kts 205°
2026-05-04 17:00 43.51713 5.15669 35990 ft 383 kts 205°
2026-05-04 17:01 43.39259 5.08990 35993 ft 382 kts 208°
2026-05-04 17:02 43.30425 5.01018 35982 ft 380 kts 216°
2026-05-04 17:03 43.23894 4.94842 35972 ft 381 kts 216°
2026-05-04 17:03 43.17332 4.88680 35955 ft 381 kts 216°
2026-05-04 17:04 43.08605 4.80508 35946 ft 381 kts 216°
2026-05-04 17:05 42.99514 4.72993 35939 ft 383 kts 211°
2026-05-04 17:06 42.92508 4.67761 35930 ft 383 kts 211°
2026-05-04 17:07 42.86282 4.63077 35937 ft 383 kts 211°
2026-05-04 17:07 42.80864 4.58994 35927 ft 382 kts 211°
2026-05-04 17:08 42.73882 4.53743 35924 ft 382 kts 211°
2026-05-04 17:09 42.69218 4.50242 35924 ft 382 kts 211°
2026-05-04 17:09 42.64563 4.46755 35923 ft 382 kts 211°
2026-05-04 17:10 42.52908 4.38048 35923 ft 383 kts 211°
2026-05-04 17:11 42.48234 4.34567 35920 ft 383 kts 211°
2026-05-04 17:12 42.41227 4.29360 35917 ft 384 kts 211°
2026-05-04 17:13 42.30298 4.21264 35915 ft 385 kts 211°
2026-05-04 17:14 42.20900 4.14326 35917 ft 385 kts 211°
2026-05-04 17:15 42.13835 4.09126 35914 ft 386 kts 211°
2026-05-04 17:16 42.04404 4.02194 35910 ft 386 kts 211°
2026-05-04 17:17 41.94973 3.95283 35907 ft 387 kts 210°
2026-05-04 17:17 41.87236 3.92103 35918 ft 393 kts 193°
2026-05-04 17:18 41.84524 3.91499 35902 ft 394 kts 193°
2026-05-04 17:19 41.73686 3.89039 35907 ft 394 kts 194°
2026-05-04 17:20 41.62884 3.86530 35906 ft 394 kts 194°
2026-05-04 17:20 41.54799 3.84671 35914 ft 393 kts 194°
2026-05-04 17:21 41.44017 3.82215 35916 ft 393 kts 194°
2026-05-04 17:22 41.38628 3.80988 35905 ft 393 kts 194°
2026-05-04 17:23 41.30595 3.79166 34865 ft 384 kts 193°
2026-05-04 17:23 41.28013 3.78580 34473 ft 381 kts 193°
2026-05-04 17:23 41.22830 3.77405 33672 ft 375 kts 193°
2026-05-04 17:24 41.20273 3.76826 33248 ft 372 kts 193°
2026-05-04 17:24 41.12873 3.74531 32065 ft 358 kts 204°
2026-05-04 17:25 41.10559 3.73327 31674 ft 355 kts 204°
2026-05-04 17:25 41.06001 3.70933 30920 ft 350 kts 204°
2026-05-04 17:26 41.01489 3.68583 30201 ft 346 kts 204°
2026-05-04 17:26 40.94823 3.65141 29025 ft 338 kts 204°
2026-05-04 17:27 40.90475 3.62905 28290 ft 332 kts 205°
2026-05-04 17:27 40.86212 3.60716 27542 ft 327 kts 205°
2026-05-04 17:28 40.82011 3.58563 26889 ft 321 kts 206°
2026-05-04 17:29 40.75853 3.55412 25823 ft 312 kts 206°
2026-05-04 17:29 40.69842 3.52341 24803 ft 306 kts 206°
2026-05-04 17:30 40.63942 3.49332 23805 ft 301 kts 206°
2026-05-04 17:31 40.60050 3.47349 23078 ft 298 kts 206°
2026-05-04 17:31 40.54300 3.44457 21790 ft 295 kts 204°